Temp_Advection
nan nan nan nan nan nan nan nan nan nan nan nan nan nan nan nan nan nan nan nan nan nan nan nan nan nan nan nan nan nan nan nan nan nan nan nan nan nan nan nan nan nan nan nan
nan -1 0 -0 -0 -0 0 0 -0 -0 1 -1 -0 -0 -0 -0 -0 -0 -0 0 0 -0 -0 -0 -0 -0 -1 -1 -1 -1 -0 -0 -0 -1 -1 -1 -0 -0 -0 0 0 0 0 nan
nan -0 -0 -0 -0 -0 0 0 -0 0 -0 -0 -0 -0 -1 -0 -0 -0 -0 -0 -0 -0 -0 -0 -0 -0 -0 -1 -1 -1 -0 -0 -0 -0 -1 -1 -1 -0 0 0 0 0 0 nan
nan -0 0 -0 -0 -0 -0 -0 0 -0 -0 -0 -0 -0 -0 -0 -0 -0 -1 -1 -1 -1 -1 -1 -1 -1 -1 -1 -1 -1 -0 0 -0 -0 -0 -0 -0 -0 -0 -0 0 0 0 nan
nan -1 0 -0 -0 -0 -0 -0 -0 -0 -0 -0 -0 -1 -1 -0 -1 -1 -0 -0 -1 -1 -0 -1 -1 -1 -0 -1 -1 -1 -1 -0 -0 -0 -0 -0 -0 -0 -0 -0 0 0 0 nan
nan -0 -0 -0 -0 -0 -0 0 -0 -0 -0 -0 -0 -1 -1 -1 -0 -1 -0 -0 -0 -1 -1 -1 -1 -1 -1 -1 -1 -1 -1 -0 -0 -0 -0 -0 -0 -0 0 0 0 0 0 nan
nan -0 0 -0 -0 -0 0 -0 -0 -0 -1 -1 -0 -0 -1 -1 -1 -0 -0 -0 -0 -1 -1 -1 -1 -1 -1 -1 -1 -1 -2 -1 -0 -0 -0 -0 -0 -0 0 0 0 0 0 nan
nan -0 0 -0 0 0 -0 -0 -0 -1 -1 -1 -1 -1 -1 -1 -1 -1 -1 -1 -0 -0 -1 -1 -1 -1 -1 -1 -1 -1 -1 -1 -0 -0 -0 -0 0 0 0 0 0 0 0 nan
nan 0 -0 -0 -0 -0 -0 -1 -1 -1 -1 -1 -1 -1 -0 -1 -1 -1 -1 -0 -0 -0 -0 -1 -1 -1 -1 -1 -1 -1 -1 -1 -0 -0 0 0 -0 0 0 0 0 0 0 nan
nan 0 0 0 0 -0 -0 -0 -0 -0 -0 -0 -0 -1 -1 -0 -0 -1 -1 -1 -1 -1 -1 -1 -1 -1 -1 -1 -1 -1 -1 -1 -0 -0 -0 0 -0 -0 -0 0 0 -0 -0 nan
nan 0 0 -0 0 -0 -0 -0 -0 -0 -0 -0 -0 -0 -0 -1 -1 -1 -1 -0 -0 -0 -1 -1 -1 -1 -0 -0 -1 -1 -1 -0 -0 -0 0 0 0 0 0 0 0 0 0 nan
nan -1 -0 -0 -0 -0 -0 -0 -0 -0 -0 -0 -0 -0 -0 -0 -0 -0 -1 -1 -0 -0 -1 -1 -1 -1 -1 -0 -1 -1 -1 -0 -0 0 0 0 0 0 0 0 0 0 0 nan
nan -0 -0 -0 -0 -0 -0 -0 -0 -0 -0 -0 -0 -0 -0 -0 -1 -0 0 -0 -0 -0 -0 -0 -0 -1 -1 -1 -1 -1 -1 -1 0 0 0 0 0 0 0 0 0 0 0 nan
nan -0 -0 -0 0 -0 -0 -0 -0 -0 -0 -0 -0 -0 -0 -0 -1 -1 -0 -0 0 -0 0 0 -0 -0 -0 -1 -1 -1 -1 -0 0 0 0 0 0 0 0 0 0 0 0 nan
nan -0 -0 -0 -0 -0 -0 -0 -0 -0 -0 -0 -0 -0 -0 -0 -1 -1 -0 -0 -0 -0 0 0 0 -0 -0 -1 -1 -1 -0 -0 0 0 0 0 0 0 0 0 0 -0 0 nan
nan 0 0 -0 -0 -0 -0 -0 -0 -0 -0 -0 -0 -0 -1 -1 -1 -1 -0 -0 0 -0 0 0 0 0 -0 -1 -1 -0 -0 -0 0 0 0 0 0 0 0 0 1 0 0 nan
nan -0 -0 -0 -0 -0 -0 -0 -0 -0 -0 -0 0 0 0 -0 -1 -0 -0 -0 0 0 0 0 0 -0 -0 -0 -0 -0 -0 0 0 0 0 0 0 0 0 0 0 0 1 nan
nan 0 0 0 0 0 -0 0 0 0 0 1 1 1 1 0 -1 -1 -1 -1 -1 -0 0 0 0 -0 -0 -0 -0 -0 0 0 0 0 0 0 0 0 0 0 0 0 0 nan
nan 0 0 0 0 0 0 0 0 0 1 1 1 1 1 1 0 -1 -1 -1 -1 -1 -0 -0 -0 -0 -0 -0 -0 0 0 0 0 0 0 0 0 0 0 0 -0 0 -0 nan
nan 0 -0 -0 0 0 0 0 -0 -0 -0 -0 -0 -0 0 0 0 -0 -0 -0 -0 -0 -1 -0 -0 -0 -1 -0 -0 0 0 0 0 0 0 0 0 0 0 -0 0 0 0 nan
nan -0 -0 -0 -0 0 -0 -0 -0 -0 -0 -0 -0 -0 -0 0 0 0 -1 -1 -0 -0 -0 -0 -0 -0 -0 -0 -0 -0 -0 0 0 0 0 0 -0 -0 -0 -0 0 0 -0 nan
nan -0 -0 -0 -0 -0 -0 -0 -0 -0 -0 -0 -0 -0 0 -0 -0 -0 0 -0 -1 -1 -0 -0 -0 -0 -0 -0 -0 -0 -0 0 0 0 0 0 -0 -0 -0 -0 0 -0 -0 nan
nan -0 -0 -0 -0 -0 0 0 -0 -0 -0 -0 -0 -0 -0 -0 -0 -0 1 1 0 0 -0 -0 -0 -0 -0 -0 -0 -0 0 0 0 0 0 0 -0 -0 -0 -0 -0 0 0 nan
nan -0 -0 -0 -0 -0 -0 0 -0 0 -0 -0 -0 -0 -0 -0 -0 -0 -0 0 1 0 0 -0 -0 -0 -0 -0 -0 0 0 0 0 0 0 0 0 0 0 0 0 0 0 nan
nan -0 -0 -0 -0 -0 -0 -0 -0 -0 -0 -0 0 0 -0 -0 -0 0 0 0 0 0 0 0 -0 0 -0 -0 0 0 0 0 0 0 0 0 1 1 1 0 0 0 0 nan
nan -0 -0 -0 -0 -0 -0 -0 -0 -0 -0 -0 -0 -0 0 0 0 0 0 0 0 -0 -0 -0 -0 0 -0 -0 0 0 0 0 0 0 0 0 1 0 0 0 0 0 0 nan
nan nan nan nan nan nan nan nan nan nan nan nan nan nan nan nan nan nan nan nan nan nan nan nan nan nan nan nan nan nan nan nan nan nan nan nan nan nan nan nan nan nan nan nan
Wind_Speed
18 19 18 20 19 18 18 18 16 17 17 14 12 10 13 15 17 18 20 18 19 23 25 25 26 28 30 33 33 32 32 34 35 27 20 14 14 14 15 14 14 16 18 19
15 17 16 19 18 18 17 17 20 19 19 7 7 9 13 16 19 23 24 19 21 27 27 26 27 31 32 32 32 32 30 32 34 28 22 15 13 16 15 16 16 17 19 22
6 5 12 13 8 8 9 5 7 10 4 8 9 13 17 21 23 22 17 21 26 29 28 29 30 33 32 32 32 32 30 30 32 31 22 17 13 14 13 15 18 18 19 19
7 10 5 3 4 3 5 1 1 4 5 9 11 16 25 25 15 18 22 28 30 30 32 32 33 32 29 32 30 30 30 28 30 32 22 15 12 11 12 12 14 14 13 16
4 6 13 3 1 2 3 0 1 5 7 13 18 24 21 18 21 26 29 30 31 32 32 34 32 28 30 31 28 28 28 28 29 31 22 13 10 9 10 10 10 10 8 11
1 4 5 6 2 5 3 5 4 8 13 18 22 13 13 28 31 33 32 31 32 32 33 30 28 27 29 29 26 27 28 27 27 29 19 12 9 8 7 6 6 6 8 8
9 6 7 4 5 4 5 3 7 12 16 19 15 21 33 33 33 31 32 33 32 32 31 29 28 28 29 26 25 26 27 25 25 26 16 11 7 6 5 5 6 7 11 12
5 5 7 6 1 5 5 9 13 16 19 23 25 29 32 33 34 33 34 33 31 32 32 29 28 27 27 26 25 25 25 23 22 22 13 7 7 10 7 7 7 11 14 16
5 2 4 5 4 2 7 12 17 20 22 25 28 31 32 34 35 35 34 33 31 30 32 29 26 24 27 25 24 23 22 21 20 19 10 6 9 12 11 10 11 14 16 16
3 3 1 8 3 1 12 15 18 20 22 24 28 30 33 33 34 34 34 33 32 30 30 31 26 24 24 24 23 22 21 18 18 16 9 7 10 13 14 14 16 17 18 20
8 9 2 5 3 13 17 16 19 21 22 25 26 30 30 33 33 34 34 33 33 34 36 35 30 27 24 21 21 20 19 16 16 14 9 9 12 14 16 16 17 19 19 21
3 4 4 6 11 14 15 20 21 23 27 26 26 29 30 33 34 34 35 38 37 36 34 32 29 27 24 20 18 18 18 15 14 13 9 10 11 14 15 15 16 16 16 20
2 6 9 12 11 9 18 20 22 24 24 27 27 27 29 33 33 35 36 35 35 36 35 32 28 26 21 19 17 16 16 14 13 13 10 10 12 14 16 14 12 14 18 21
4 7 4 5 11 18 17 20 22 23 22 24 26 27 28 31 33 34 34 35 36 35 32 27 24 22 19 17 15 14 14 11 12 12 10 11 12 15 17 19 21 21 21 23
0 7 8 12 14 15 17 19 23 23 25 27 27 27 29 32 34 34 33 34 30 27 25 22 20 19 16 14 13 13 11 10 11 11 8 10 12 15 18 21 24 25 25 23
7 9 8 12 15 17 19 20 21 24 26 28 28 30 31 30 30 29 29 28 27 27 22 21 20 17 14 12 13 12 10 9 10 9 8 11 13 16 21 24 27 30 31 34
8 8 13 15 17 19 18 18 19 21 25 26 29 31 31 28 28 27 29 25 22 24 16 19 21 16 12 10 10 11 9 9 9 8 9 12 15 18 23 26 32 34 35 31
8 10 11 13 16 19 20 19 20 22 24 27 29 31 30 29 29 29 28 25 24 23 21 19 17 16 12 10 10 11 9 9 10 9 10 13 16 19 24 29 35 36 34 29
10 11 13 15 16 19 20 21 22 24 25 27 30 31 30 28 27 27 24 24 24 27 26 23 20 14 10 8 9 8 7 9 9 9 11 14 17 21 26 32 35 35 32 29
10 11 13 15 16 16 19 19 21 22 23 24 26 29 30 29 28 27 23 23 22 24 22 19 17 16 12 8 5 4 4 7 8 9 12 15 18 22 27 31 32 33 31 26
12 12 14 15 16 15 16 18 20 21 22 21 24 26 28 28 27 26 25 27 24 22 20 17 14 13 12 9 5 3 3 4 6 9 14 16 19 23 27 31 32 31 29 26
12 12 13 14 15 15 16 17 17 19 20 21 21 23 25 26 28 29 22 25 26 23 21 18 16 13 10 5 4 3 2 3 5 9 14 17 20 24 28 29 28 27 21 23
11 12 13 13 14 14 14 15 15 16 18 19 21 22 22 23 26 30 32 28 26 22 19 19 16 12 9 5 2 2 2 3 4 7 13 17 21 24 26 24 24 23 18 19
10 10 11 12 13 13 13 13 14 14 15 16 18 19 21 22 21 23 24 26 26 22 18 18 15 11 8 6 5 4 6 5 4 6 11 17 22 25 26 24 20 19 21 20
9 10 10 12 13 14 14 14 13 13 13 15 16 17 19 20 22 23 23 25 27 27 25 21 17 14 12 11 9 8 7 8 7 8 10 17 24 26 22 18 18 19 18 17
8 9 10 11 12 13 14 13 13 14 13 14 15 16 16 18 19 20 22 23 24 26 29 29 29 25 22 19 15 12 12 11 10 11 13 18 22 20 18 17 17 17 16 14
8 8 10 10 10 11 12 12 12 12 12 13 13 14 15 17 18 18 20 22 24 25 26 27 28 29 29 28 27 24 20 19 19 17 18 18 18 17 17 16 15 13 12 12
Wind_Direction
274 286 289 278 271 263 257 252 256 280 286 299 341 344 329 318 320 324 320 315 323 329 327 324 324 324 323 328 328 335 336 342 343 332 316 289 269 270 268 263 259 257 248 244
289 272 274 284 277 270 264 264 268 276 285 41 344 325 316 318 318 314 314 309 318 323 322 321 320 322 319 321 325 329 331 339 342 333 324 296 265 266 260 262 259 256 249 253
283 352 307 281 314 258 249 279 301 264 351 352 339 332 322 317 314 312 317 318 316 316 316 315 315 316 315 317 320 324 328 335 340 338 318 310 289 272 254 263 272 261 251 241
291 311 258 78 60 2 278 358 185 286 326 334 330 322 313 311 310 320 321 316 314 313 311 310 310 314 312 311 317 320 325 328 337 337 317 294 298 280 275 275 262 248 254 235
266 286 292 163 72 7 336 98 65 330 330 324 321 316 303 319 334 320 314 309 307 306 305 306 309 311 305 309 313 316 322 324 331 334 319 297 293 292 282 268 250 241 224 218
224 275 284 69 54 338 274 242 46 342 328 326 327 311 308 320 315 313 311 309 308 305 304 305 306 306 304 307 310 313 316 320 325 331 313 286 288 291 263 236 231 224 201 197
232 259 269 56 347 319 256 54 341 332 321 319 309 299 303 308 308 308 308 308 308 306 303 304 305 305 303 306 303 307 313 317 323 329 308 278 259 252 205 177 170 164 167 164
210 237 256 22 197 301 3 325 328 329 322 315 309 306 308 310 311 312 311 311 309 306 305 306 304 305 301 300 302 303 310 313 321 327 305 269 232 217 206 198 181 167 159 150
237 336 87 41 343 97 350 330 324 323 321 316 312 311 311 311 311 311 309 309 308 307 306 306 306 302 299 300 302 303 307 309 318 325 303 249 232 216 206 195 185 171 166 157
321 134 316 312 165 335 337 327 320 320 315 313 311 312 310 309 310 309 309 310 310 309 306 305 307 304 298 299 300 299 302 305 314 319 298 240 230 226 219 202 191 182 176 166
258 262 325 84 161 335 328 325 322 318 315 315 316 313 312 311 311 310 309 310 309 306 305 304 306 301 299 297 296 294 299 300 309 312 290 247 231 233 222 214 204 191 183 172
307 26 338 324 327 327 328 323 323 323 324 323 321 317 316 312 311 311 311 312 311 310 306 303 299 295 297 296 292 291 296 297 304 304 280 247 233 223 219 219 208 202 189 178
355 326 304 301 317 324 322 324 324 325 324 322 323 320 315 312 313 314 313 314 312 308 306 302 297 294 295 294 288 288 292 290 298 297 275 241 225 217 205 193 202 197 188 180
320 331 327 330 317 321 321 324 327 327 327 324 322 320 318 315 317 320 321 324 322 316 311 301 296 294 296 293 286 287 288 281 291 291 267 235 219 212 205 191 177 173 182 176
325 328 310 308 315 318 326 332 331 332 331 329 327 324 323 321 323 325 328 324 323 325 317 311 303 301 298 289 282 288 279 269 287 286 254 221 210 207 200 189 179 173 168 169
310 320 321 319 321 327 333 335 331 328 328 328 328 328 326 324 324 328 328 335 340 342 332 326 315 309 301 288 289 290 274 259 279 274 232 204 200 200 192 185 176 168 165 161
331 332 323 324 327 328 327 324 322 322 326 329 331 332 331 329 332 335 343 344 343 343 350 340 335 327 309 297 296 292 272 252 270 256 218 201 196 194 188 180 172 167 165 162
320 316 314 315 318 321 324 326 326 329 331 333 337 341 342 340 335 335 338 346 348 355 0 351 341 333 323 308 299 290 267 246 257 243 211 195 193 192 185 178 173 170 164 164
320 320 321 321 320 320 322 326 330 332 335 339 344 347 348 346 341 339 339 347 348 352 1 2 352 343 331 314 303 286 260 238 244 230 206 193 190 189 185 181 177 174 166 169
326 325 327 329 330 326 325 329 332 336 338 343 346 350 354 356 353 349 350 350 351 349 350 359 3 0 348 335 318 290 248 240 234 219 198 191 188 187 186 186 182 171 171 174
331 330 331 333 337 337 334 335 337 340 343 348 350 354 355 358 3 359 355 355 358 357 354 353 360 12 7 2 350 323 267 236 217 210 198 191 186 186 188 183 177 174 172 177
327 329 333 336 339 343 343 344 343 346 348 352 355 358 2 4 9 12 8 354 358 357 358 360 2 360 348 340 335 329 286 200 195 201 199 192 188 186 183 181 176 173 175 173
324 327 333 338 340 344 346 347 349 352 354 358 358 1 9 11 13 9 11 13 8 1 5 8 4 1 2 348 4 54 105 147 173 194 196 193 187 182 177 174 175 179 179 180
322 324 331 338 339 340 345 354 356 357 1 7 9 10 10 14 24 22 24 24 25 17 18 18 14 18 21 43 61 85 104 104 138 174 186 188 183 179 172 177 181 187 189 194
323 326 333 336 344 349 350 354 358 360 10 13 16 20 25 24 25 22 28 32 35 35 38 41 38 41 49 56 70 88 102 112 126 143 167 178 174 171 174 173 174 185 195 191
329 334 335 335 340 346 348 352 356 358 6 16 18 21 26 28 28 27 33 37 40 43 45 47 50 52 57 61 66 79 93 103 121 135 150 160 164 165 163 170 184 184 183 185
332 333 332 335 335 344 349 349 352 358 7 12 15 18 24 30 31 31 33 36 40 43 47 51 54 57 61 65 69 72 80 94 103 115 127 136 144 151 157 157 155 160 169 175
Height
1525 1521 1523 1519 1516 1517 1517 1513 1516 1507 1507 1506 1513 1519 1519 1519 1516 1514 1511 1508 1506 1503 1500 1496 1491 1486 1481 1476 1471 1465 1459 1453 1446 1440 1436 1434 1434 1434 1434 1434 1434 1435 1435 1437
1535 1525 1523 1520 1517 1514 1514 1513 1510 1509 1509 1517 1520 1521 1520 1519 1516 1513 1509 1506 1504 1501 1497 1492 1487 1482 1476 1472 1466 1461 1455 1450 1443 1437 1433 1430 1430 1430 1430 1431 1431 1431 1432 1434
1531 1530 1528 1514 1511 1511 1511 1512 1516 1513 1516 1521 1521 1522 1521 1518 1514 1510 1507 1505 1502 1498 1493 1488 1483 1478 1472 1467 1462 1457 1452 1447 1441 1435 1430 1427 1425 1426 1425 1426 1426 1426 1427 1428
1540 1532 1525 1521 1517 1518 1515 1515 1521 1522 1522 1524 1523 1522 1518 1514 1510 1509 1507 1503 1498 1493 1488 1483 1478 1473 1468 1463 1458 1453 1449 1444 1438 1432 1427 1425 1423 1423 1422 1422 1422 1422 1423 1423
1546 1532 1509 1518 1521 1520 1521 1518 1522 1524 1524 1524 1523 1519 1513 1511 1509 1507 1504 1499 1494 1488 1482 1476 1472 1468 1463 1458 1454 1450 1445 1440 1435 1429 1424 1422 1421 1421 1420 1420 1420 1419 1420 1421
1545 1547 1521 1520 1527 1527 1525 1516 1527 1528 1525 1523 1522 1515 1509 1509 1506 1502 1498 1494 1487 1482 1475 1471 1467 1463 1457 1453 1449 1446 1442 1437 1432 1426 1422 1420 1420 1420 1419 1418 1418 1419 1419 1421
1541 1538 1518 1527 1529 1530 1523 1527 1528 1527 1525 1523 1521 1517 1509 1505 1501 1498 1492 1486 1481 1476 1469 1464 1461 1457 1452 1448 1445 1442 1438 1433 1429 1424 1420 1418 1419 1419 1419 1419 1419 1420 1421 1423
1534 1530 1521 1527 1527 1531 1534 1533 1529 1526 1523 1519 1516 1511 1505 1499 1495 1490 1485 1479 1475 1468 1462 1458 1455 1451 1447 1444 1441 1438 1434 1429 1426 1421 1418 1416 1417 1419 1419 1420 1421 1422 1424 1426
1527 1520 1527 1528 1531 1533 1534 1532 1529 1524 1520 1516 1511 1505 1500 1494 1489 1484 1479 1474 1469 1463 1456 1453 1449 1446 1441 1438 1436 1432 1430 1426 1423 1419 1416 1415 1417 1418 1420 1421 1423 1425 1427 1429
1532 1527 1527 1528 1530 1531 1532 1530 1527 1522 1518 1514 1507 1501 1495 1490 1484 1479 1473 1467 1462 1456 1451 1446 1444 1441 1437 1433 1431 1428 1425 1422 1420 1417 1415 1415 1416 1418 1420 1422 1424 1425 1428 1430
1527 1525 1526 1528 1530 1530 1528 1527 1523 1519 1515 1509 1503 1497 1491 1485 1479 1473 1467 1461 1456 1450 1444 1439 1437 1434 1431 1429 1426 1423 1421 1418 1417 1414 1413 1414 1414 1417 1419 1422 1424 1425 1428 1431
1521 1529 1528 1529 1530 1528 1527 1524 1519 1514 1507 1503 1499 1493 1487 1481 1475 1468 1461 1455 1448 1442 1438 1434 1431 1428 1425 1424 1421 1419 1416 1415 1414 1412 1412 1412 1413 1415 1419 1422 1425 1428 1432 1435
1528 1528 1528 1528 1527 1527 1524 1520 1515 1510 1506 1500 1495 1490 1485 1477 1470 1462 1455 1449 1443 1437 1432 1427 1423 1421 1420 1418 1416 1415 1413 1412 1411 1410 1410 1410 1412 1414 1418 1422 1425 1429 1433 1437
1527 1526 1527 1527 1526 1524 1522 1517 1512 1508 1503 1499 1492 1487 1481 1473 1464 1457 1450 1444 1437 1431 1426 1422 1418 1416 1415 1413 1412 1411 1409 1408 1408 1407 1408 1408 1410 1413 1416 1420 1423 1428 1434 1438
1527 1526 1526 1525 1524 1522 1518 1513 1509 1504 1500 1494 1489 1483 1476 1468 1460 1452 1446 1440 1433 1426 1422 1418 1415 1413 1412 1410 1408 1407 1406 1406 1406 1405 1406 1407 1409 1412 1416 1419 1423 1427 1433 1439
1526 1525 1524 1523 1522 1518 1514 1511 1508 1503 1498 1492 1485 1478 1471 1465 1457 1450 1444 1437 1430 1424 1419 1416 1412 1410 1408 1406 1405 1404 1403 1403 1403 1404 1404 1406 1408 1411 1415 1419 1423 1428 1432 1437
1525 1524 1523 1521 1518 1515 1513 1510 1507 1502 1495 1489 1482 1474 1467 1460 1453 1447 1441 1435 1429 1424 1418 1415 1410 1407 1405 1403 1402 1402 1401 1402 1402 1402 1403 1405 1408 1412 1415 1419 1424 1429 1433 1439
1525 1524 1522 1520 1517 1513 1510 1507 1503 1498 1492 1486 1479 1472 1464 1458 1451 1444 1438 1432 1427 1422 1417 1413 1408 1405 1403 1401 1400 1400 1399 1400 1400 1401 1403 1405 1409 1412 1416 1420 1425 1429 1435 1442
1523 1521 1520 1517 1514 1511 1507 1503 1499 1494 1489 1483 1477 1470 1464 1457 1450 1443 1437 1432 1426 1420 1414 1411 1407 1403 1401 1399 1398 1398 1398 1398 1399 1401 1403 1406 1409 1413 1418 1422 1426 1431 1437 1443
1521 1519 1517 1515 1512 1509 1505 1502 1497 1493 1488 1482 1477 1470 1463 1456 1449 1442 1437 1432 1428 1422 1416 1412 1407 1403 1400 1398 1397 1397 1397 1398 1399 1401 1403 1406 1409 1414 1419 1423 1428 1433 1438 1445
1519 1517 1515 1512 1510 1507 1503 1499 1495 1491 1486 1482 1476 1470 1464 1458 1451 1444 1437 1431 1426 1421 1416 1412 1408 1404 1402 1400 1398 1398 1397 1397 1398 1401 1403 1406 1410 1415 1420 1425 1430 1434 1440 1446
1518 1516 1514 1511 1508 1505 1502 1498 1494 1490 1486 1481 1477 1472 1465 1459 1452 1446 1441 1435 1427 1422 1417 1412 1408 1405 1403 1401 1399 1398 1398 1398 1399 1401 1404 1407 1411 1416 1421 1427 1431 1437 1442 1447
1516 1514 1512 1510 1507 1504 1501 1497 1493 1490 1486 1482 1477 1472 1467 1462 1455 1448 1440 1436 1430 1424 1419 1414 1410 1406 1403 1401 1400 1399 1399 1399 1400 1401 1404 1408 1412 1417 1423 1428 1434 1439 1443 1448
1515 1513 1511 1509 1506 1503 1500 1497 1493 1490 1487 1483 1479 1474 1469 1464 1460 1455 1449 1442 1435 1428 1422 1417 1413 1409 1406 1403 1402 1401 1400 1401 1401 1403 1406 1409 1414 1420 1425 1430 1435 1439 1444 1448
1514 1512 1510 1508 1505 1502 1499 1496 1493 1490 1487 1484 1481 1476 1472 1468 1463 1458 1453 1447 1440 1434 1427 1421 1417 1413 1410 1407 1406 1404 1404 1403 1404 1405 1408 1411 1416 1421 1426 1431 1436 1441 1445 1449
1513 1511 1509 1506 1504 1501 1498 1496 1493 1490 1488 1485 1482 1479 1475 1471 1467 1463 1458 1452 1446 1441 1435 1429 1424 1420 1416 1413 1411 1409 1408 1408 1409 1410 1412 1415 1419 1424 1428 1433 1438 1442 1446 1449
1512 1510 1508 1506 1503 1501 1499 1496 1494 1491 1489 1486 1484 1481 1477 1474 1470 1467 1462 1457 1452 1448 1443 1439 1435 1431 1427 1423 1420 1417 1416 1415 1415 1417 1419 1422 1425 1429 1433 1437 1441 1444 1447 1450